Regional Weather Roundup
Issued by NWS

Home | Current Version | Previous Version | Graphics & Text | Print | Product List | Glossary On
Versions: 1 2 3 4 5 6 7 8 9 10 11 12 13 14 15 16 17 18 19 20 21 22 23 24 25 26 27 28 29 30 31 32 33 34 35 36 37 38 39 40 41 42 43 44 45 46 47 48 49 50
737
ASUS43 KDMX 192301
RWRIA

WEATHER ROUNDUP FOR IOWA
NATIONAL WEATHER SERVICE DES MOINES IA
500 PM CST FRI JAN 19 2018

NOTE: "FAIR" INDICATES FEW OR NO CLOUDS BELOW 12,000 FEET WITH NO
SIGNIFICANT WEATHER AND/OR OBSTRUCTIONS TO VISIBILITY.

* - THESE STATIONS ARE NOT NWS STATIONS...THUS NOT UNDER NWS
QUALITY CONTROL.  THEY ALSO DO NOT REPORT WEATHER SUCH
AS PRECIPITATION OR FOG.

IAZ001>003-012>014-020>022-031>034-043>046-200000-
   NORTHWEST IOWA

CITY           SKY/WX    TMP DP  RH WIND       PRES   REMARKS
CARROLL *      CLOUDY    41  30  65 SW23G30   29.61S
CHEROKEE *     CLOUDY    45  30  56 CALM      29.61R
DENISON *      CLOUDY    41  30  65 MISG      29.65S
LE MARS *      CLOUDY    50  32  50 W5        29.62R
ORANGE CITY *  CLOUDY    48  36  61 NW8       29.62R
SHELDON *      CLOUDY    46  36  66 NW10      29.60R
SIOUX CITY     CLOUDY    51  32  48 W7        29.62R
SPENCER        CLOUDY    44  32  62 W6        29.60R
STORM LAKE *   CLOUDY    45  30  57 SW12      29.60R
$$

IAZ055>058-069>071-079>083-090>094-200000-
   SOUTHWEST IOWA

CITY           SKY/WX    TMP DP  RH WIND       PRES   REMARKS
ATLANTIC *     CLOUDY    39  32  75 S14       29.67F WCI  31
AUDUBON *      CLOUDY    43  30  61 SW10G21   29.68R
CLARINDA *     CLOUDY    41  32  70 S10         N/A
COUNCIL BLFS * CLOUDY    41  30  65 S15G24    29.66S
CRESTON *      CLOUDY    41  30  65 S15       29.70S
HARLAN  *      CLOUDY    39  32  75 SW8G18    29.72R WCI  34
LAMONI         CLOUDY    45  26  47 S14       29.71F
RED OAK *      CLOUDY    39  32  75 S10       29.71R WCI  32
SHENANDOAH *   CLOUDY    41  32  70 SW5       29.73R
$$

IAZ047>049-059>061-072>074-084-200000-
   CENTRAL IOWA

CITY           SKY/WX    TMP DP  RH WIND       PRES   REMARKS
AMES           PTCLDY    42  32  67 W12       29.66R
ANKENY *       CLOUDY    45  28  53 S10G16    29.67F
BOONE *        CLOUDY    43  30  61 SW15G22   29.62R
CHARITON *     CLOUDY    43  28  56 S14       29.70S
DES MOINES     CLOUDY    45  28  51 S10       29.68S
GRINNELL*      CLOUDY    41  30  66 S12       29.69S
KNOXVILLE *    CLOUDY    43  27  52 S12       29.68R
MARSHALLTOWN   CLOUDY    42  29  59 S18       29.62F
NEWTON *       CLOUDY    43  28  56 SW12      29.68S
PELLA *        CLOUDY    44  28  52 SW12G20   29.71R
PERRY *          N/A     40  28  61 SW14      29.65S WCI  33
$$

IAZ004>006-015-016-023>025-035-036-200000-
   NORTH CENTRAL IOWA

CITY           SKY/WX    TMP DP  RH WIND       PRES   REMARKS
ALGONA *       CLOUDY    39 N/A N/A SW10      29.59R WCI  32
CLARION *      CLOUDY    37  36  93 S9        29.61R WCI  31
ESTHERVILLE    CLOUDY    41  33  73 W9        29.59R
FORT DODGE *   CLOUDY    41  31  67 SW10      29.61
MASON CITY     CLOUDY    39  30  70 SW10      29.60R WCI  32
FOREST CITY *    N/A     37  32  81 SW7       29.59R WCI  32
WEBSTER CITY * CLOUDY    41  32  70 SW16      29.59S
IOWA FALLS *     N/A     40  32  71 SW12      29.63R WCI  33
$$

IAZ007>011-017>019-026>030-037>042-050>054-066-200000-
   NORTHEAST IOWA

CITY           SKY/WX    TMP DP  RH WIND       PRES   REMARKS
CEDAR RAPIDS     N/A     41  29  62 S18G25    29.66F
CHARLES CITY *   N/A     39  34  81 SW12      29.60S WCI  32
CLINTON *        N/A     38  29  70 SW12      29.72F WCI  30
DECORAH *        N/A     41  30  65 SW10G23   29.57S
DUBUQUE          N/A     37  27  67 S20       29.64S WCI  27
MONTICELLO *     N/A     39  28  65 S10       29.67S WCI  32
OELWEIN *        N/A     39  32  75 SW13G21   29.63R WCI  32
WATERLOO         N/A     40  27  59 SW8G22    29.63R WCI  34
$$

IAZ064-065-067-068-078-200000-
   EAST CENTRAL IOWA

CITY           SKY/WX    TMP DP  RH WIND       PRES   REMARKS
DAVENPORT        N/A     43  26  51 S18       29.73F
IOWA CITY        N/A     42  27  55 S9        29.72F
MT. PLEASANT * CLOUDY    43  28  56 S15       29.75S
MUSCATINE *      N/A     41  28  60 S7        29.74S
QUAD CITIES      N/A     43  28  55 SW10      29.72F
$$

IAZ062-063-075>077-085>089-095>099-200000-
   SOUTHEAST IOWA

CITY           SKY/WX    TMP DP  RH WIND       PRES   REMARKS
BURLINGTON     CLOUDY    43  29  57 S14       29.76F
FAIRFIELD *    CLOUDY    43  28  56 S12G17    29.72F
FORT MADISON * CLOUDY    45  28  53 S10       29.78S
KEOKUK *       CLOUDY    46  28  49 S13       29.78S
OSKALOOSA *      N/A     40  28  62 SW15      29.71S WCI  32
OTTUMWA        CLOUDY    43  26  51 S20       29.71S
WASHINGTON *   CLOUDY    41  30  65 S16       29.72F
$$

ABBREVIATIONS USED IN REMARKS
   TC - TEMPERATURES IN CELSIUS
  WCI - WIND CHILL INDEX
   HX - HEAT INDEX
  VSB - VISIBILITY
$$





USA.gov is the U.S. government's official web portal to all federal, state and local government web resources and services.